Flag for Germany Weather past 2 weeks in Norden, Lower Saxony, Germany

Now
51 °F

Sunny.


Feels Like: 47 °F
Forecast: 44 / 53 °F
Wind: 9 mph from Northeast

Location: Norderney

Current Time: Apr 19, 2015 at 6:08:49 PM

Latest Report: Apr 19, 2015 at 5:00 PM


Visibility: 6 mi

Pressure: 30.26 "Hg

Humidity: 71%

Dew point: 42 °F

Location of NordenLocation

Historic Weather in Norden — Graph

°F

Norden temperature yesterday

Maximum temperature yesterday: 47 °F (at 2:00 PM)
Minimum temperature yesterday: 43 °F (at 11:00 PM)
Average temperature yesterday: 46 °F

Past Weeks' High & Low Weather Summary

 TemperatureHumidityPressure
High57 °F (Apr 11, 1:00 PM)100% (Apr 8, 4:00 AM)30.58 "Hg (Apr 8, 4:00 AM)
Low38 °F (Apr 9, 8:00 AM)49% (Apr 12, 3:00 PM)29.88 "Hg (Apr 11, 8:00 AM)
Average46 °F81%30.25 "Hg
* Reported Apr 4 5:00 PM — Apr 19 5:00 PM, Norden, Weather by CustomWeather, © 2015

Note: Actual official high and low records may vary slightly from our data, if they occured in-between our weather recording intervals... More about our weather records

Advertising

Norden weather history for previous 24 hours

 ConditionsComfort  
Time TempWeatherWind HumidityBarometerVisibility
5:00 PM
Sun, Apr 19
51 °FSunny.9 mph71%30.26 "Hg6 mi
4:00 PM50 °FOvercast.8 mph74%30.26 "Hg13 mi
3:00 PM51 °FScattered clouds.6 mph74%30.25 "Hg11 mi
2:00 PM50 °FOvercast.2 mph72%30.24 "Hg7 mi
1:00 PM49 °FOvercast.3 mph71%30.22 "Hg16 mi
12:00 PM48 °FOvercast.3 mph75%30.21 "Hg16 mi
11:00 AM47 °FOvercast.5 mph76%30.19 "Hg17 mi
10:00 AM47 °FOvercast.3 mph78%30.17 "Hg18 mi
9:00 AM47 °FOvercast.2 mph80%30.17 "Hg16 mi
8:00 AM46 °FScattered clouds.2 mph82%30.15 "Hg18 mi
7:00 AM45 °FOvercast.5 mph84%30.15 "Hg14 mi
6:00 AM46 °FOvercast.7 mph86%30.16 "Hg12 mi
5:00 AM45 °FPassing clouds.8 mph86%30.17 "Hg14 mi
4:00 AM45 °FPassing clouds.8 mph86%30.19 "Hg13 mi
3:00 AM45 °FPassing clouds.7 mph85%30.21 "Hg14 mi
2:00 AM45 °FOvercast.8 mph81%30.24 "Hg13 mi
1:00 AM44 °FOvercast.7 mph78%30.27 "Hg8 mi
12:00 AM44 °FOvercast.8 mph75%30.29 "Hg11 mi
11:00 PM
Sat, Apr 18
43 °FOvercast.9 mph77%30.30 "Hg12 mi
10:00 PM44 °FOvercast.8 mph78%30.31 "Hg11 mi
9:00 PM44 °FOvercast.9 mph76%30.31 "Hg13 mi
8:00 PM44 °FOvercast.8 mph78%30.33 "Hg16 mi
7:00 PM45 °FScattered clouds.8 mph75%30.33 "Hg16 mi
6:00 PM45 °FPassing clouds.8 mph76%30.34 "Hg28 mi
Weather by CustomWeather, © 2015

See weather overviewHow to use our weather pages